This is the latest recevied weather packets stored in our database for station/object KB3HHA-13. If no packets are shown the sender has not sent any weather packets the latest 10 day(s).
| Time | Temp. | Humidity | Pressure | Rain* | Wind** | Luminosity | Snow |
|---|---|---|---|---|---|---|---|
| 1777656721 | 18.33° C | 43% | 1012.8 hPa | 0 mm | - | - | - |
| 1777656422 | 18.33° C | 41% | 1012.8 hPa | 0 mm | - | - | - |
| 1777656123 | 18.33° C | 41% | 1013.1 hPa | 0 mm | - | - | - |
| 1777655820 | 18.33° C | 41% | 1013.1 hPa | 0 mm | - | - | - |
| 1777655523 | 18.33° C | 40% | 1013.2 hPa | 0 mm | - | - | - |
| 1777655221 | 18.33° C | 43% | 1013.1 hPa | 0 mm | - | - | - |
| 1777654922 | 17.78° C | 47% | 1013.1 hPa | 0 mm | - | - | - |
| 1777654620 | 17.78° C | 43% | 1013.1 hPa | 0 mm | - | - | - |
| 1777654322 | 17.78° C | 44% | 1013.2 hPa | 0 mm | - | - | - |
| 1777654022 | 17.78° C | 43% | 1013.3 hPa | 0 mm | - | - | - |
| 1777653720 | 17.78° C | 46% | 1013.3 hPa | 0 mm | - | - | - |
| 1777653424 | 17.22° C | 44% | 1013.3 hPa | 0 mm | - | - | - |
| 1777653121 | 17.22° C | 48% | 1013.4 hPa | 0 mm | - | - | - |
| 1777652820 | 17.22° C | 43% | 1013.5 hPa | 0 mm | - | - | - |
| 1777652522 | 17.22° C | 43% | 1013.6 hPa | 0 mm | - | - | - |
| 1777652220 | 16.67° C | 48% | 1013.7 hPa | 0 mm | - | - | - |
| 1777651923 | 16.67° C | 50% | 1013.7 hPa | 0 mm | - | - | - |
| 1777651622 | 16.11° C | 51% | 1013.7 hPa | 0 mm | - | - | - |
| 1777651323 | 16.11° C | 50% | 1013.8 hPa | 0 mm | - | - | - |
| 1777651020 | 15.56° C | 48% | 1013.9 hPa | 0 mm | - | - | - |
| 1777650722 | 15.56° C | 49% | 1014 hPa | 0 mm | - | - | - |
| 1777650420 | 15.56° C | 50% | 1014 hPa | 0 mm | - | - | - |
| 1777650120 | 15° C | 51% | 1014.1 hPa | 0 mm | - | - | - |
| 1777649821 | 15° C | 50% | 1014.3 hPa | 0 mm | - | - | - |
| 1777649520 | 14.44° C | 51% | 1014.3 hPa | 0 mm | - | - | - |
* Rain latest hour (hover to see other rain measurements)
** Current wind speed in m/s (hover to see current wind gust speed)